Regional Weather Roundup
Issued by NWS

Home | Current Version | Previous Version | Graphics & Text | Print | Product List | Glossary On
Versions: 1 2 3 4 5 6 7 8 9 10 11 12 13 14 15 16 17 18 19 20 21 22 23 24 25 26 27 28 29 30 31 32 33 34 35 36 37 38 39 40 41 42 43 44 45 46 47 48 49 50
000
ASUS43 KFSD 292102
RWRSD

WEATHER ROUNDUP FOR SOUTH DAKOTA
NATIONAL WEATHER SERVICE SIOUX FALLS SD
400 PM CDT SAT APR 29 2017

NOTE: "FAIR" INDICATES FEW OR NO CLOUDS BELOW 12,000 FEET WITH NO
SIGNIFICANT WEATHER AND/OR OBSTRUCTIONS TO VISIBILITY.


SDZ001>005-009-010-012>017-292200-
NORTHWEST AND NORTH CENTRAL SOUTH DAKOTA

CITY           SKY/WX    TMP DP  RH WIND       PRES   REMARKS
BUFFALO          N/A     57  16  20 VRB5      30.17F
FAITH            N/A     57  18  21 N9        30.23F
MOBRIDGE       SUNNY     63  14  15 CALM      30.24S
$$

SDZ012>016-024>037-041>051-057-063-072>074-292200-
SOUTHWEST AND SOUTH CENTRAL SOUTH DAKOTA

CITY           SKY/WX    TMP DP  RH WIND       PRES   REMARKS
RAPID CTY ARPT MOSUNNY   55  19  24 VRB3      30.23F
PIERRE         MOSUNNY   59  18  20 NE8       30.22F
CUSTER         MOSUNNY   41  12  30 CALM      30.20F
ELLSWORTH AFB  SUNNY     54  16  22 N9        30.22F
PHILIP         MOSUNNY   58  17  20 NE13G23   30.22F
PINE RIDGE     MOSUNNY   52  21  29 N16G22    30.20F
SPEARFISH      FAIR      50  19  29 NE8G15    30.23F
WINNER         FAIR      56  21  25 NE18G24   30.19F
$$

SDZ004>011-016>023-039-040-292200-
NORTHEAST SOUTH DAKOTA

CITY           SKY/WX    TMP DP  RH WIND       PRES   REMARKS
ABERDEEN       SUNNY     58  16  19 VRB3G20   30.29F
WATERTOWN      MOSUNNY   53  23  31 NE14      30.27F
BROOKINGS      CLOUDY    53  22  29 NE18G26   30.22F
SISSETON         N/A     58  22  24 E9        30.29F
$$

SDZ017-020-022-023-036>040-048>070-292200-
SOUTHEAST SOUTH DAKOTA

CITY           SKY/WX    TMP DP  RH WIND       PRES   REMARKS
SIOUX FALLS    CLOUDY    54  23  30 E23G31    30.15F
HURON          CLOUDY    57  22  25 NE14      30.23F
CHAMBERLAIN    CLOUDY    58  21  24 N13G21    30.20F
MITCHELL       CLOUDY    58  20  22 E15G29    30.20F
YANKTON        PTSUNNY   52  27  37 NE24      30.12F
$$

ABBREVIATIONS USED IN REMARKS
   TC - TEMPERATURE IN CELSIUS
  WCI - WIND CHILL INDEX
   HX - HEAT INDEX
  VSB - VISIBILITY




USA.gov is the U.S. government's official web portal to all federal, state and local government web resources and services.